Showing default

CALSPHERE 4(A), 1520

Orbit data source: Space-Track

CALSPHERE 4(A), 1520 is a payload satellite owned by NRL (US) in LEO that was launched on Fri, 13 Aug 1965 UTC via a THOR ABLESTAR launch vehicle from the Air Force Western Test Range (AFWTR). Payload-class satellites include a variety of spacecraft equipped with specific instruments for various scientific and technological missions. These include communications satellites like Starlink; space stations such as the ISS; scientific satellites like the Hubble; Earth observation satellites from companies like Planet Labs, Umbra, and HawkEye 360; GPS; miniature CubeSats for education and research; and military/defense satellites.

Loading next visibility...
Identifier
1520, 1965-065H
Orbit
LEO
Country
Flag of USUS
Related business
Manufacturer
NRL
Mission
Operational spacecraft
Bus & Motor
NRL 14", Unknown motor
Mass
4 kg wet, 4 kg dry
Launch date (UTC)
1965-08-13 (61 years ago)
Launch vehicle
THOR ABLESTAR
Launch site
Air Force Western Test Range (AFWTR)
Object type
Payload
Rocket body
Debris
Shape & HBR
Unknown
Radar Cross Section
Small (<0.1 m²)

Expand to show TLE details & history
Last TLE update: 7 hours ago

TLE from 7 hours ago
0 CALSPHERE 4(A)
1  1520U 65065H   26132.80970787  .00000101  00000-0  17606-3 0  9995
2  1520  89.8963 122.8393 0068838 201.8130 233.0602 13.36271517957989
Epoch: 2026-05-12T19:25Z
TLE epoch observation values (Epoch: 2026-05-12T19:25:58.759Z)
Latitude
74.30246°
Longitude
-38.86717°
Altitude
1,167.294 km
Speed
7.261 km/s
True Right ascension
08h 12m 49s
True Declination
74° 13' 03"
Sunlit
Object was in daylight at epoch
Visualization orbit readout
Latitude
Unknown
Longitude
Unknown
Altitude
Unknown
Speed
Unknown
Apparent Right ascension
Unknown
Apparent Declination
Unknown
Sunlit
N/A
Visualization observer readout
Local Sidereal Time
10:52:11
Azimuth
Unknown
Elevation
Unknown
Doppler factor
Unknown
Orbital elements
Apogee altitude
1,171.888 km
Perigee altitude
1,068.653 km
Semi-major axis
7,498.407 km
Eccentricity
0.00688
Inclination
89.8963°
RAAN
122.8393°
Arg. of periapsis
201.813°
True anomaly
232.43297°
Mean anomaly
233.0602°
Eccentric anomaly
232.74626°
Mean motion
3.34264 °/min
Orbital period
107.7 mins
BSTAR
0.00017606
Loading maneuver chart data...
Computing Atmospheric mass density...

Documentation

Showing up to 5 results
|